{"data":{"norad_id":49155,"intl_designator":"2021-082AB","name":"STARLINK-3060","alt_names":[],"object_type":"PAYLOAD","status":"ACTIVE","operator":null,"country":"US","launch_date":"2021-09-14","launch_site_code":"AFWTR","launch_vehicle":null,"mission":null,"orbit_class":"UNKNOWN","rcs_meters":null,"size_class":null,"mass_kg":null,"dimensions":null,"purposes":["comms"],"wikipedia_slug":null,"has_3d_model":false,"image_url":null,"decayed_at":null,"tle_current":{"epoch":"2026-05-25T04:53:22.271136Z","epoch_age_seconds":57563,"freshness":"FRESH","line1":"1 49155U 21082AB  26145.20372999  .00000282  00000+0  31402-4 0  9991","line2":"2 49155  70.0006  61.5291 0003244 268.7457  91.3331 14.98332397259505","mean_motion":14.98332397,"eccentricity":0.0003244,"inclination_deg":70.0006,"raan_deg":61.5291,"arg_perigee_deg":268.7457,"mean_anomaly_deg":91.3331,"bstar":3.1402e-5,"rev_number":25950,"period_min":96.106845375779,"perigee_km":569.79383826033,"apogee_km":574.30311859873,"semimajor_km":6950.1854784295,"source":"CELESTRAK","updated_at":"2026-05-25T13:38:16.789126Z"}}}